When you browse on this site, cookies collect data to enhance your experience and personalize the content and advertising you see.
Visit our Privacy Policy to learn more. By continuing to use the site, you agree to this use of cookies and data.
  • In Lithuania
  • List of Countries
  • For 7 days
  • Water Temperature
  • Weather Map
  • Weather Widgets
  • user-avatar
    Login

    Hourly Weather Stama

    Today, 19 August, Monday

    Time Temperature Precipitation Wind Pressure Humidity
    00:00 +20°C° 0.2 mm 4 mps 743 mmHg 75%
    01:00 +20°C° 0.2 mm 4 mps 743 mmHg 78%
    02:00 +19°C° 0 mm 3 mps 743 mmHg 82%
    03:00 +19°C° 0 mm 3 mps 743 mmHg 85%
    04:00 +19°C° 0 mm 3 mps 743 mmHg 89%
    05:00 +20°C° 0 mm 3 mps 744 mmHg 87%
    06:00 +20°C° 0 mm 3 mps 744 mmHg 85%
    07:00 +21°C° 0 mm 3 mps 745 mmHg 83%
    08:00 +24°C° 0 mm 3 mps 745 mmHg 77%
    09:00 +25°C° 0 mm 3 mps 746 mmHg 71%
    10:00 +26°C° 0 mm 3 mps 746 mmHg 65%
    11:00 +26°C° 0.1 mm 3 mps 746 mmHg 63%
    12:00 +27°C° 0.1 mm 3 mps 747 mmHg 61%
    13:00 +27°C° 0.1 mm 3 mps 747 mmHg 59%
    14:00 +26°C° 0.5 mm 3 mps 747 mmHg 64%
    15:00 +25°C° 0.5 mm 3 mps 747 mmHg 69%
    16:00 +24°C° 0.5 mm 3 mps 747 mmHg 75%
    17:00 +23°C° 0.2 mm 2 mps 747 mmHg 79%
    18:00 +20°C° 0.2 mm 2 mps 748 mmHg 82%
    19:00 +20°C° 0.2 mm 1 mps 748 mmHg 86%
    20:00 +20°C° 0 mm 1 mps 748 mmHg 87%
    21:00 +19°C° 0 mm 1 mps 749 mmHg 88%
    22:00 +19°C° 0 mm 1 mps 749 mmHg 89%
    23:00 +18°C° 0 mm 1 mps 749 mmHg 90%

    Tomorrow, 20 August, Tuesday

    Time Temperature Precipitation Wind Pressure Humidity
    00:00 +16°C° 0 mm 1 mps 749 mmHg 91%
    01:00 +16°C° 0 mm 1 mps 750 mmHg 93%
    02:00 +15°C° 0 mm 1 mps 750 mmHg 93%
    03:00 +15°C° 0 mm 1 mps 750 mmHg 93%
    04:00 +15°C° 0 mm 1 mps 750 mmHg 93%
    05:00 +16°C° 0 mm 1 mps 751 mmHg 89%
    06:00 +18°C° 0 mm 1 mps 751 mmHg 85%
    07:00 +19°C° 0 mm 1 mps 751 mmHg 81%
    08:00 +20°C° 0 mm 2 mps 752 mmHg 71%
    09:00 +23°C° 0 mm 2 mps 752 mmHg 60%
    10:00 +24°C° 0 mm 2 mps 752 mmHg 50%
    11:00 +25°C° 0 mm 2 mps 752 mmHg 47%
    12:00 +25°C° 0 mm 2 mps 752 mmHg 44%
    13:00 +26°C° 0 mm 2 mps 752 mmHg 41%
    14:00 +26°C° 0 mm 2 mps 752 mmHg 43%
    15:00 +25°C° 0 mm 2 mps 752 mmHg 45%
    16:00 +25°C° 0 mm 1 mps 752 mmHg 47%
    17:00 +23°C° 0 mm 1 mps 752 mmHg 54%
    18:00 +21°C° 0 mm 2 mps 752 mmHg 61%
    19:00 +19°C° 0 mm 2 mps 752 mmHg 68%
    20:00 +18°C° 0 mm 2 mps 752 mmHg 71%
    21:00 +18°C° 0 mm 2 mps 752 mmHg 74%
    22:00 +17°C° 0 mm 2 mps 752 mmHg 76%
    23:00 +17°C° 0 mm 2 mps 752 mmHg 75%

    Day after tomorrow, 21 August, Wednesday

    Time Temperature Precipitation Wind Pressure Humidity
    00:00 +17°C° 0 mm 2 mps 752 mmHg 75%
    01:00 +18°C° 0 mm 2 mps 752 mmHg 74%
    02:00 +18°C° 0 mm 2 mps 752 mmHg 74%
    03:00 +19°C° 0 mm 1 mps 752 mmHg 74%
    04:00 +19°C° 0 mm 1 mps 752 mmHg 74%
    05:00 +17°C° 0.2 mm 2 mps 752 mmHg 79%
    06:00 +17°C° 0.2 mm 3 mps 752 mmHg 83%
    07:00 +16°C° 0.2 mm 3 mps 752 mmHg 87%
    08:00 +15°C° 1.5 mm 4 mps 752 mmHg 90%
    09:00 +15°C° 1.5 mm 4 mps 753 mmHg 93%
    10:00 +14°C° 1.5 mm 5 mps 753 mmHg 95%
    11:00 +14°C° 1 mm 5 mps 753 mmHg 95%
    12:00 +14°C° 1 mm 4 mps 753 mmHg 95%
    13:00 +14°C° 1 mm 4 mps 753 mmHg 94%
    14:00 +14°C° 0.1 mm 4 mps 753 mmHg 94%
    15:00 +14°C° 0.1 mm 3 mps 753 mmHg 93%
    16:00 +15°C° 0.1 mm 2 mps 753 mmHg 92%
    17:00 +15°C° 0 mm 2 mps 753 mmHg 93%
    18:00 +14°C° 0 mm 2 mps 754 mmHg 94%
    19:00 +14°C° 0 mm 2 mps 754 mmHg 95%
    20:00 +14°C° 0 mm 1 mps 754 mmHg 95%
    21:00 +14°C° 0 mm 1 mps 754 mmHg 94%
    22:00 +13°C° 0 mm 1 mps 754 mmHg 94%
    23:00 +13°C° 0 mm 1 mps 754 mmHg 94%

    22 August, Thursday

    Time Temperature Precipitation Wind Pressure Humidity
    00:00 +13°C° 0 mm 2 mps 754 mmHg 95%
    01:00 +13°C° 0 mm 2 mps 754 mmHg 96%
    02:00 +13°C° 0 mm 2 mps 754 mmHg 96%
    03:00 +13°C° 0 mm 2 mps 754 mmHg 96%
    04:00 +13°C° 0 mm 2 mps 754 mmHg 96%
    05:00 +14°C° 0 mm 2 mps 754 mmHg 94%
    06:00 +14°C° 0 mm 2 mps 754 mmHg 92%
    07:00 +15°C° 0 mm 2 mps 755 mmHg 90%
    08:00 +17°C° 0 mm 2 mps 755 mmHg 82%
    09:00 +18°C° 0 mm 2 mps 755 mmHg 75%
    10:00 +19°C° 0 mm 2 mps 755 mmHg 68%
    11:00 +20°C° 0 mm 2 mps 755 mmHg 63%
    12:00 +21°C° 0 mm 2 mps 754 mmHg 59%
    13:00 +23°C° 0 mm 2 mps 754 mmHg 54%
    14:00 +23°C° 0 mm 2 mps 754 mmHg 54%
    15:00 +23°C° 0 mm 2 mps 754 mmHg 53%
    16:00 +23°C° 0 mm 2 mps 754 mmHg 53%
    17:00 +20°C° 0 mm 2 mps 754 mmHg 61%
    18:00 +18°C° 0 mm 2 mps 754 mmHg 68%
    19:00 +16°C° 0 mm 2 mps 754 mmHg 75%
    20:00 +15°C° 0 mm 2 mps 754 mmHg 79%
    21:00 +14°C° 0 mm 2 mps 754 mmHg 82%
    22:00 +14°C° 0 mm 2 mps 755 mmHg 86%
    23:00 +13°C° 0 mm 1 mps 755 mmHg 86%

    23 August, Friday

    Time Temperature Precipitation Wind Pressure Humidity
    00:00 +13°C° 0 mm 1 mps 755 mmHg 86%
    01:00 +13°C° 0 mm 1 mps 755 mmHg 86%
    02:00 +12°C° 0 mm 1 mps 755 mmHg 87%
    03:00 +12°C° 0 mm 1 mps 755 mmHg 87%
    04:00 +12°C° 0 mm 1 mps 755 mmHg 87%
    05:00 +13°C° 0 mm 1 mps 755 mmHg 82%
    06:00 +15°C° 0 mm 1 mps 756 mmHg 76%
    07:00 +16°C° 0 mm 1 mps 756 mmHg 71%
    08:00 +19°C° 0 mm 1 mps 756 mmHg 65%
    09:00 +19°C° 0 mm 2 mps 756 mmHg 59%
    10:00 +21°C° 0 mm 2 mps 757 mmHg 53%
    11:00 +21°C° 0 mm 2 mps 757 mmHg 52%
    12:00 +23°C° 0 mm 2 mps 756 mmHg 50%
    13:00 +24°C° 0 mm 2 mps 756 mmHg 49%
    14:00 +24°C° 0 mm 2 mps 756 mmHg 50%
    15:00 +23°C° 0 mm 2 mps 756 mmHg 51%
    16:00 +23°C° 0 mm 2 mps 756 mmHg 52%
    17:00 +20°C° 0 mm 2 mps 756 mmHg 59%
    18:00 +18°C° 0 mm 2 mps 756 mmHg 66%
    19:00 +16°C° 0 mm 2 mps 756 mmHg 73%
    20:00 +16°C° 0 mm 2 mps 756 mmHg 75%
    21:00 +15°C° 0 mm 2 mps 756 mmHg 77%
    22:00 +14°C° 0 mm 2 mps 756 mmHg 79%
    23:00 +14°C° 0 mm 2 mps 756 mmHg 80%

    24 August, Saturday

    Time Temperature Precipitation Wind Pressure Humidity
    00:00 +13°C° 0 mm 2 mps 756 mmHg 81%
    01:00 +13°C° 0 mm 2 mps 756 mmHg 81%
    02:00 +13°C° 0 mm 2 mps 756 mmHg 82%
    03:00 +12°C° 0 mm 2 mps 756 mmHg 83%
    04:00 +12°C° 0 mm 2 mps 756 mmHg 84%
    05:00 +13°C° 0 mm 2 mps 756 mmHg 81%
    06:00 +15°C° 0 mm 2 mps 756 mmHg 78%
    07:00 +16°C° 0 mm 3 mps 756 mmHg 74%
    08:00 +18°C° 0 mm 3 mps 756 mmHg 68%
    09:00 +20°C° 0 mm 3 mps 756 mmHg 61%
    10:00 +22°C° 0 mm 3 mps 756 mmHg 55%
    11:00 +23°C° 0 mm 4 mps 756 mmHg 53%
    12:00 +25°C° 0 mm 4 mps 755 mmHg 51%
    13:00 +25°C° 0 mm 4 mps 755 mmHg 49%
    14:00 +25°C° 0 mm 4 mps 755 mmHg 50%
    15:00 +25°C° 0 mm 4 mps 754 mmHg 52%
    16:00 +25°C° 0 mm 4 mps 754 mmHg 54%
    17:00 +22°C° 0 mm 4 mps 754 mmHg 60%
    18:00 +20°C° 0 mm 4 mps 753 mmHg 66%
    19:00 +18°C° 0 mm 3 mps 753 mmHg 72%
    20:00 +18°C° 0 mm 3 mps 753 mmHg 74%
    21:00 +17°C° 0 mm 4 mps 753 mmHg 76%
    22:00 +15°C° 0 mm 4 mps 753 mmHg 78%
    23:00 +15°C° 0 mm 4 mps 753 mmHg 79%
    Show more